Alma, MI

7:16 AM EDT on May 26, 2017 (GMT -0400)
Gratiot Community

Weather History for KAMN - March, 2013

Change the Weather History Date:

Monday, March 4, 2013

  Actual Average Record
Temperature  
Mean Temperature 18 °F -  
Max Temperature 30 °F 38 °F 69 °F (1974)
Min Temperature 5 °F 20 °F -2 °F (2002)
Degree Days  
Heating Degree Days 48    
Moisture  
Dew Point 12 °F    
Average Humidity 79    
Maximum Humidity 95    
Minimum Humidity 48    
Precipitation  
Precipitation 0.00 in - - ()
Sea Level Pressure  
Sea Level Pressure 30.10 in    
Wind  
Wind Speed 3 mph (WNW)    
Max Wind Speed 7 mph    
Max Gust Speed -    
Visibility 10 miles    
Events      
Averages and records for this station are not official NWS values.
T = Trace of Precipitation, MM = Missing Value Source: NWS Daily Summary

Daily Weather History Graph

Daily Weather History Graph

Search for Another Location

Airport or City:

Trip Planner

Search our weather history database for the weather conditions in past years. The results will help you decide how hot, cold, wet, or windy it might be!

Date:

Astronomy

Mar. 04, 2013 Rise Set
Actual Time 7:09 AM EST 6:31 PM EST
Civil Twilight 6:41 AM EST 7:00 PM EST
Nautical Twilight 6:08 AM EST 7:33 PM EST
Astronomical Twilight 5:34 AM EST 8:06 PM EST
Moon 1:25 AM EST (3/4) 11:05 AM EST (3/4)
Length of Visible Light 12h 19m
Length of Day
11h 22m
Waning Gibbous, 52% of the Moon is Illuminated
Mar 4
Waning Gibbous
Mar 4
Last Quarter
Mar 11
New
Mar 19
First Quarter
Mar 27
Full

Hourly Weather History & Observations

Time (EST) Temp. Windchill Dew Point Humidity Pressure Visibility Wind Dir Wind Speed Gust Speed Precip Events Conditions
12:13 AM 16.7 °F 11.2 °F 10.8 °F 77% 30.07 in 10.0 mi WNW 3.5 mph - N/A   Clear
12:33 AM 14.5 °F 8.8 °F 10.4 °F 84% 30.08 in 10.0 mi West 3.5 mph - N/A   Clear
12:53 AM 13.5 °F 7.5 °F 9.7 °F 85% 30.08 in 10.0 mi West 3.5 mph - N/A   Clear
1:13 AM 10.6 °F 2.5 °F 7.5 °F 87% 30.09 in 10.0 mi West 4.6 mph - N/A   Clear
1:33 AM 11.3 °F 3.3 °F 9.1 °F 91% 30.09 in 10.0 mi West 4.6 mph - N/A   Clear
1:53 AM 10.4 °F - 7.9 °F 90% 30.09 in 10.0 mi Calm Calm - N/A   Clear
2:33 AM 9.1 °F - 7.5 °F 93% 30.08 in 10.0 mi Calm Calm - N/A   Clear
2:54 AM 8.6 °F - 7.0 °F 93% 30.08 in 10.0 mi Calm Calm - N/A   Clear
3:14 AM 9.0 °F - 7.5 °F 94% 30.08 in 10.0 mi Calm Calm - N/A   Clear
3:34 AM 8.2 °F - 6.6 °F 93% 30.08 in 10.0 mi Calm Calm - N/A   Clear
3:54 AM 7.5 °F - 5.5 °F 92% 30.09 in 10.0 mi Calm Calm - N/A   Clear
4:14 AM 7.3 °F 0.5 °F 5.2 °F 91% 30.09 in 10.0 mi WNW 3.5 mph - N/A   Clear
4:34 AM 6.8 °F -2.0 °F 5.0 °F 92% 30.10 in 10.0 mi WNW 4.6 mph - N/A   Clear
4:54 AM 8.2 °F 1.6 °F 6.8 °F 94% 30.11 in 10.0 mi WNW 3.5 mph - N/A   Clear
5:14 AM 8.2 °F 1.6 °F 6.6 °F 93% 30.12 in 10.0 mi WNW 3.5 mph - N/A   Clear
5:35 AM 9.0 °F - 7.3 °F 93% 30.12 in 10.0 mi Calm Calm - N/A   Clear
5:50 AM 8.8 °F - 7.0 °F 92% 30.12 in 10.0 mi Calm Calm - N/A   Clear
6:10 AM 7.5 °F 0.8 °F 5.7 °F 92% 30.12 in 10.0 mi WNW 3.5 mph - N/A   Clear
6:30 AM 5.5 °F - 3.6 °F 92% 30.13 in 10.0 mi Calm Calm - N/A   Clear
6:50 AM 6.8 °F - 4.8 °F 92% 30.12 in 10.0 mi Calm Calm - N/A   Clear
7:10 AM 6.8 °F - 5.4 °F 94% 30.12 in 10.0 mi Calm Calm - N/A   Clear
7:30 AM 5.2 °F - 3.0 °F 91% 30.12 in 10.0 mi Calm Calm - N/A   Clear
7:50 AM 7.5 °F - 5.7 °F 92% 30.13 in 10.0 mi Calm Calm - N/A   Clear
8:10 AM 8.1 °F 1.4 °F 6.1 °F 92% 30.14 in 10.0 mi West 3.5 mph - N/A   Clear
8:31 AM 11.7 °F 3.7 °F 9.9 °F 92% 30.15 in 10.0 mi West 4.6 mph - N/A   Clear
8:51 AM 13.5 °F 5.8 °F 11.8 °F 93% 30.15 in 10.0 mi West 4.6 mph - N/A   Clear
9:11 AM 15.6 °F 7.0 °F 13.5 °F 91% 30.14 in 10.0 mi NW 5.8 mph - N/A   Clear
9:31 AM 16.7 °F 8.3 °F 13.6 °F 88% 30.14 in 10.0 mi NW 5.8 mph - N/A   Clear
9:51 AM 18.1 °F 11.3 °F 13.8 °F 83% 30.14 in 10.0 mi NW 4.6 mph - N/A   Clear
10:11 AM 19.8 °F 13.2 °F 14.4 °F 80% 30.14 in 10.0 mi NW 4.6 mph - N/A   Clear
10:31 AM 20.7 °F 14.2 °F 14.7 °F 78% 30.13 in 10.0 mi NW 4.6 mph - N/A   Clear
10:51 AM 22.1 °F 14.7 °F 15.1 °F 74% 30.13 in 10.0 mi North 5.8 mph - N/A   Clear
11:12 AM 23.7 °F - 15.1 °F 70% 30.13 in 10.0 mi Calm Calm - N/A   Clear
11:32 AM 25.3 °F 19.7 °F 14.2 °F 63% 30.13 in 10.0 mi NW 4.6 mph - N/A   Clear
11:52 AM 26.1 °F 19.4 °F 13.8 °F 60% 30.13 in 10.0 mi NNW 5.8 mph - N/A   Clear
12:12 PM 27.0 °F 20.5 °F 13.8 °F 58% 30.13 in 10.0 mi North 5.8 mph - N/A   Clear
12:32 PM 25.9 °F 20.3 °F 13.5 °F 59% 30.13 in 10.0 mi NNW 4.6 mph - N/A   Clear
12:52 PM 26.6 °F - 12.9 °F 56% 30.12 in 10.0 mi Calm Calm - N/A   Clear
1:12 PM 27.7 °F 21.3 °F 12.6 °F 53% 30.11 in 10.0 mi North 5.8 mph - N/A   Clear
1:52 PM 28.6 °F 23.5 °F 12.9 °F 52% 30.10 in 10.0 mi NW 4.6 mph - N/A   Clear
2:13 PM 29.7 °F 26.1 °F 13.1 °F 50% 30.09 in 10.0 mi West 3.5 mph - N/A   Clear
2:33 PM 30.2 °F - 12.6 °F 48% 30.09 in 10.0 mi Calm Calm - N/A   Clear
2:53 PM 29.7 °F - 15.3 °F 55% 30.09 in 10.0 mi Calm Calm - N/A   Clear
3:13 PM 29.8 °F 24.9 °F 14.4 °F 53% 30.09 in 10.0 mi SSE 4.6 mph - N/A   Clear
3:33 PM 30.2 °F 26.7 °F 14.4 °F 52% 30.09 in 10.0 mi SE 3.5 mph - N/A   Clear
3:53 PM 30.2 °F 25.4 °F 15.3 °F 54% 30.09 in 10.0 mi South 4.6 mph - N/A   Clear
4:33 PM 29.5 °F 22.5 °F 16.7 °F 59% 30.08 in 10.0 mi South 6.9 mph - N/A   Clear
4:53 PM 29.3 °F 23.2 °F 16.7 °F 59% 30.08 in 10.0 mi South 5.8 mph - N/A   Clear
5:14 PM 28.6 °F 23.5 °F 18.0 °F 64% 30.08 in 10.0 mi South 4.6 mph - N/A   Clear
5:34 PM 28.4 °F - 17.1 °F 63% 30.08 in 10.0 mi Calm Calm - N/A   Clear
5:54 PM 27.3 °F 22.0 °F 16.3 °F 63% 30.08 in 10.0 mi SSW 4.6 mph - N/A   Clear
6:14 PM 26.8 °F - 15.4 °F 62% 30.08 in 10.0 mi Calm Calm - N/A   Clear
6:34 PM 25.7 °F - 14.9 °F 64% 30.08 in 10.0 mi Calm Calm - N/A   Clear
6:54 PM 23.9 °F - 15.3 °F 70% 30.08 in 10.0 mi Calm Calm - N/A   Clear
7:14 PM 22.1 °F - 15.3 °F 75% 30.08 in 10.0 mi Calm Calm - N/A   Clear
7:34 PM 23.0 °F - 15.1 °F 72% 30.09 in 10.0 mi Calm Calm - N/A   Clear
7:55 PM 21.9 °F - 16.9 °F 81% 30.09 in 10.0 mi Calm Calm - N/A   Clear
8:15 PM 19.9 °F - 16.2 °F 85% 30.09 in 10.0 mi Calm Calm - N/A   Clear
8:35 PM 20.1 °F - 15.8 °F 83% 30.09 in 10.0 mi Calm Calm - N/A   Clear
8:55 PM 19.2 °F - 14.2 °F 81% 30.09 in 10.0 mi Calm Calm - N/A   Clear
9:30 PM 17.1 °F - 14.2 °F 88% 30.10 in 10.0 mi Calm Calm - N/A   Clear
9:50 PM 15.6 °F - 12.9 °F 89% 30.10 in 10.0 mi Calm Calm - N/A   Clear
10:10 PM 16.2 °F - 13.6 °F 90% 30.10 in 10.0 mi Calm Calm - N/A   Clear
10:30 PM 17.2 °F - 14.9 °F 91% 30.10 in 10.0 mi Calm Calm - N/A   Clear
10:51 PM 16.9 °F - 13.6 °F 87% 30.10 in 10.0 mi Calm Calm - N/A   Clear
11:11 PM 16.0 °F - 13.3 °F 89% 30.11 in 10.0 mi Calm Calm - N/A   Clear
11:31 PM 14.5 °F - 12.9 °F 93% 30.11 in 10.0 mi Calm Calm - N/A   Clear
11:50 PM 13.5 °F 4.4 °F 12.4 °F 95% 30.11 in 10.0 mi NNE 5.8 mph - N/A   Clear